Home   Weather   San Marino   Past weeks

Flag for San Marino Past Weather in San Marino, San Marino — Yesterday and Last 2 Weeks

61 °F

Partly cloudy.

Feels Like: 61 °F
Forecast: 44 / 49 °F
Wind: 9 mph from Northwest

Location: Rimini Airport

Current Time: Oct 20, 2016 at 9:42:33 PM

Latest Report: Oct 20, 2016 at 8:45 PM

Visibility: 4 mi

Pressure: 29.89 "Hg (27.63 "Hg at 666m altitude)

Humidity: 94%

Dew Point: 59 °F

Location of San MarinoLocation

Past Weather in San Marino — Graph


San Marino Temperature Yesterday

Maximum temperature yesterday: 68 °F (at 1:15 PM)
Minimum temperature yesterday: 52 °F (at 7:15 AM)
Average temperature yesterday: 61 °F

High & Low Weather Summary for the Past Weeks

High72 °F (Oct 20, 11:45 AM)100% (Oct 9, 9:15 AM)30.24 "Hg (Oct 9, 9:15 AM)
Low45 °F (Oct 8, 4:45 AM)38% (Oct 20, 1:15 PM)29.80 "Hg (Oct 14, 4:45 PM)
Average58 °F86%30.01 "Hg
* Reported Oct 5 8:15 PM — Oct 20 8:15 PM, San Marino, Weather by CustomWeather, © 2016

Note: Actual official high and low records may vary slightly from our data, if they occured in-between our weather recording intervals... More about our weather records


San Marino Weather History for the Previous 24 Hours

Scroll right to see more
Time TempWeatherWind HumidityBarometerVisibility
8:15 PM
Thu, Oct 20
61 °FPartly cloudy.8 mph94%29.89 "Hg4 mi
7:45 PM61 °FPartly cloudy.5 mph94%29.89 "Hg4 mi
7:15 PM61 °FPartly cloudy.5 mph88%29.89 "Hg5 mi
6:45 PM61 °FPartly cloudy.3 mph94%29.86 "Hg4 mi
6:15 PM63 °FLight rain. Broken clouds.6 mph88%29.86 "Hg4 mi
5:45 PM63 °FLight rain. Broken clouds.9 mph88%29.86 "Hg5 mi
5:15 PM63 °FPartly sunny.7 mph88%29.86 "HgN/A
4:45 PM64 °FPartly sunny.8 mph83%29.86 "HgN/A
4:15 PM64 °FScattered clouds.8 mph83%29.86 "HgN/A
3:45 PM64 °FBroken clouds.8 mph83%29.86 "HgN/A
3:15 PM64 °FScattered clouds.8 mph88%29.86 "Hg6 mi
2:45 PM64 °FBroken clouds.8 mph83%29.86 "Hg5 mi
2:15 PM66 °FBroken clouds.10 mph73%29.86 "Hg5 mi
1:45 PM66 °FScattered clouds.10 mph64%29.86 "Hg5 mi
1:15 PM72 °FScattered clouds.13 mph38%29.86 "HgN/A
12:45 PM72 °FScattered clouds.10 mph41%29.86 "HgN/A
12:15 PM72 °FPassing clouds.9 mph44%29.86 "HgN/A
11:45 AM72 °FSunny.10 mph44%29.86 "Hg10 mi
11:15 AM70 °FSunny.9 mph50%29.86 "Hg10 mi
10:45 AM68 °FSunny.8 mph56%29.86 "Hg10 mi
10:15 AM68 °FSunny.7 mph64%29.86 "Hg10 mi
9:45 AM66 °FSunny.2 mph68%29.86 "Hg10 mi
9:15 AM64 °FSunny.5 mph73%29.86 "Hg10 mi
8:45 AM63 °FSunny.3 mph77%29.86 "Hg10 mi
8:15 AM59 °FSunny.6 mph88%29.86 "Hg10 mi
7:45 AM59 °FSunny.5 mph88%29.86 "Hg10 mi
7:15 AM59 °FClear.3 mph88%29.86 "Hg10 mi
6:45 AM59 °FClear.3 mph88%29.86 "Hg10 mi
6:15 AM59 °FClear.3 mph88%29.86 "Hg10 mi
5:45 AM59 °FClear.5 mph88%29.86 "Hg10 mi
5:15 AM59 °FClear.5 mph88%29.86 "Hg10 mi
4:45 AM59 °FClear.5 mph88%29.86 "Hg10 mi
4:15 AM61 °FClear.5 mph88%29.86 "Hg10 mi
3:45 AM61 °FClear.5 mph88%29.86 "Hg10 mi
3:15 AM61 °FClear.5 mph83%29.89 "Hg10 mi
2:45 AM63 °FClear.3 mph73%29.89 "Hg10 mi
2:15 AM63 °FClear.2 mph73%29.89 "Hg10 mi
1:15 AM64 °FClear.3 mph68%29.92 "Hg10 mi
12:45 AM64 °FClear.5 mph68%29.92 "Hg10 mi
12:15 AM64 °FClear.5 mph68%29.92 "Hg10 mi
11:45 PM
Wed, Oct 19
64 °FClear.6 mph73%29.92 "Hg10 mi
11:15 PM64 °FClear.6 mph73%29.92 "Hg10 mi
10:45 PM64 °FClear.7 mph83%29.92 "Hg10 mi
10:15 PM63 °FClear.7 mph83%29.92 "Hg10 mi
9:45 PM63 °FClear.5 mph94%29.92 "Hg10 mi
9:15 PM63 °FClear.5 mph94%29.92 "Hg10 mi
Weather by CustomWeather, © 2016

See weather overviewHow to use our weather pages